sat.trackr.live / text

‹ back to catalog

ONEWEB-0445

NORAD 51639 · 2022-012T

PAYLOAD ACTIVE UNKNOWN

§ Identity

Operator
Country
UK
Launch date
2022-02-10
Launch site
FRGUI
Launch vehicle
Mass (kg)
RCS (m²)

Purposes: comms

External: N2YO · Heavens-Above · Gunter

§ Orbital elements

Epoch: 2026-05-24T23:32:59.663040Z

Period
109.89 min
Inclination
87.8866°
Eccentricity
0.0001643
Mean motion
13.10375893 rev/d
Perigee alt
1,220.5 km
Apogee alt
1,223.0 km
Semi-major
7,599.8 km
B*
-1.0569e-3
RAAN
40.8732°
Arg perigee
84.1623°
Mean anomaly
275.9691°
Rev number
20,630

§ Raw data

ONEWEB-04451 51639U 22012T   26144.98124610 -.00000356  00000+0 -10569-2 0  99972 51639  87.8866  40.8732 0001643  84.1623 275.9691 13.10375893206301

JSON: /api/v1/satellites/51639 · /tle

For live sub-satellite position, see the globe view (requires WebGL).

§ Visibility from observer

Set your observer location to see the next 7 days of passes ≥ 10°. The values pass through the URL so the page stays shareable.

No JS? Fill the form by hand. The geolocation button needs JavaScript.